Weather in Foki

Russia / Perm Krai     56°41′33″N   54°21′11″E
temp.,
°C
wind,
m/s
gust,
m/s
humid.,
%
clouds,
%
prec.,
mm/h
press.,
hPa
HPBL,
m
28 february, sun
sun2823:00−11e4993100 1.3 1003504
02:00−13ene4895100 0.4 1003382
05:00−15ne4894100 0.8 1004326
08:00−15ne4995100 0.2 1004374
11:00−13ne4892100 0.4 1005442
14:00−11ne4889100 0.1 1006542
17:00−11nne4890100 0.3 1007602
20:00−13nne4994100 0.1 1010435
1 march, mon
mon123:00−15nne389599 0.2 1012279
02:00−19n259880 0.0 101495
05:00−21n239843 0.0 101558
08:00−22n23993 0.0 101748
11:00−17n24933 0.0 1019244
14:00−12n228585 0.0 1018480
17:00−12nnw238992 0.1 1019431
20:00−18sw119789 0.0 101820
2 march, tue
tue223:00−18ssw239960 0.0 101744
02:00−19ssw379985 0.0 1015159
05:00−20s499689 0.0 1012258
08:00−18s51095100 0.0 1009325
11:00−15s51193100 0.3 1007391
14:00−12s51192100 0.6 1004522
17:00−10s51091100 0.9 1002595
20:00−10s41094100 0.4 1000523
3 march, wed
wed323:00−9s41094100 1.1 999474
02:00−8sse3895100 0.9 998373
05:00−8ese2596100 1.6 997205
08:00−9ne1297100 0.8 99738
11:00−7nnw2494100 0.8 998278
14:00−5nw2492100 0.0 998419
17:00−3nw4791100 0.2 999800
20:00−5nw3109499 0.3 1000628
4 march, thu
thu423:00−8nw399697 0.3 1003266
02:00−11nw379462 0.0 1004148
05:00−12wnw379657 0.2 1005212
08:00−14wnw3897100 0.1 1006199
11:00−11w369493 0.1 1006291
14:00−7wsw4689100 0.0 1006615
17:00−7sw5990100 0.1 1004644
20:00−7ssw61494100 0.6 1002796